Location: Esterri de Aneo
(42.6284°N, 1.1223°E)
Time: 15:03:16
(UTC+00:00)

CZ-4C R/B - Pass Details

Date: 11 December 2025
Orbit: 484 x 1495 km, 63.4° (Epoch: 19 January)

Event Time Altitude Azimuth Distance (km) Brightness Sun altitude
Rises 17:39:19 0° 322° (NW) 3,785 5.8 -13.7°
Reaches altitude 10° 17:41:43 10° 322° (NW) 2,962 5.3 -14.1°
Maximum altitude 17:49:01 80° 237° (WSW) 1,315 3.2 -15.4°
Drops below altitude 10° 17:57:55 10° 152° (SSE) 3,561 5.3 -17.0°
Sets 18:01:02 0° 151° (SSE) 4,586 5.9 -17.5°
